Time,TemperatureF,DewpointF,PressureIn,WindDirection,WindDirectionDegrees,WindSpeedMPH,WindSpeedGustMPH,Humidity,HourlyPrecipIn,Conditions,Clouds,dailyrainin,SoftwareType,DateUTC
2013-04-04 00:00:00,34.5,15.4,30.31,North,352,6.0,21.0,45,0.00,,---,0.00,VWS V14.01,2013-04-04 04:00:00,
2013-04-04 00:05:00,34.5,14.9,30.31,NW,318,6.0,14.0,44,0.00,,---,0.00,VWS V14.01,2013-04-04 04:05:00,
2013-04-04 00:10:00,34.4,15.3,30.31,NW,321,4.0,14.0,45,0.00,,---,0.00,VWS V14.01,2013-04-04 04:10:00,
2013-04-04 00:15:00,34.3,15.7,30.30,NW,322,4.0,14.0,46,0.00,,---,0.00,VWS V14.01,2013-04-04 04:15:00,
2013-04-04 00:20:00,34.3,15.2,30.30,NW,310,6.0,14.0,45,0.00,,---,0.00,VWS V14.01,2013-04-04 04:20:00,
2013-04-04 00:25:00,34.3,15.2,30.30,WNW,294,15.0,20.0,45,0.00,,---,0.00,VWS V14.01,2013-04-04 04:25:00,
2013-04-04 00:30:00,34.3,15.2,30.29,NW,309,6.0,20.0,45,0.00,,---,0.00,VWS V14.01,2013-04-04 04:30:00,
2013-04-04 00:35:00,34.2,15.6,30.29,NW,313,6.0,12.0,46,0.00,,---,0.00,VWS V14.01,2013-04-04 04:35:00,
2013-04-04 00:40:00,34.2,15.6,30.29,WNW,302,5.0,15.0,46,0.00,,---,0.00,VWS V14.01,2013-04-04 04:40:00,
2013-04-04 00:45:00,34.1,15.5,30.29,WNW,302,3.0,15.0,46,0.00,,---,0.00,VWS V14.01,2013-04-04 04:45:00,
2013-04-04 00:50:00,34.0,15.4,30.29,NE,41,3.0,15.0,46,0.00,,---,0.00,VWS V14.01,2013-04-04 04:50:00,
2013-04-04 00:55:00,34.0,16.4,30.29,NNE,30,8.0,15.0,48,0.00,,---,0.00,VWS V14.01,2013-04-04 04:55:00,
2013-04-04 01:00:00,34.0,16.4,30.29,NE,53,5.0,15.0,48,0.00,,---,0.00,VWS V14.01,2013-04-04 05:00:00,
2013-04-04 01:05:00,33.9,15.8,30.29,WNW,300,5.0,6.0,47,0.00,,---,0.00,VWS V14.01,2013-04-04 05:05:00,
2013-04-04 01:10:00,33.8,15.7,30.29,NNW,343,8.0,12.0,47,0.00,,---,0.00,VWS V14.01,2013-04-04 05:10:00,
2013-04-04 01:15:00,33.9,15.3,30.29,NNW,337,10.0,13.0,46,0.00,,---,0.00,VWS V14.01,2013-04-04 05:15:00,
2013-04-04 01:20:00,33.9,15.8,30.29,NNE,16,11.0,16.0,47,0.00,,---,0.00,VWS V14.01,2013-04-04 05:20:00,
2013-04-04 01:25:00,33.9,15.8,30.29,NNE,25,7.0,16.0,47,0.00,,---,0.00,VWS V14.01,2013-04-04 05:25:00,
2013-04-04 01:30:00,33.7,16.6,30.28,North,359,4.0,16.0,49,0.00,,---,0.00,VWS V14.01,2013-04-04 05:30:00,
2013-04-04 01:35:00,33.7,15.6,30.27,NNE,31,11.0,15.0,47,0.00,,---,0.00,VWS V14.01,2013-04-04 05:35:00,
2013-04-04 01:40:00,33.8,16.2,30.27,ENE,59,16.0,16.0,48,0.00,,---,0.00,VWS V14.01,2013-04-04 05:40:00,
2013-04-04 01:45:00,33.7,16.6,30.27,NE,55,8.0,17.0,49,0.00,,---,0.00,VWS V14.01,2013-04-04 05:45:00,
2013-04-04 01:50:00,33.7,16.1,30.27,NNE,30,10.0,17.0,48,0.00,,---,0.00,VWS V14.01,2013-04-04 05:50:00,
2013-04-04 01:55:00,33.7,15.6,30.27,NNW,328,5.0,18.0,47,0.00,,---,0.00,VWS V14.01,2013-04-04 05:55:00,
2013-04-04 02:00:00,33.6,16.5,30.27,North,352,10.0,18.0,49,0.00,,---,0.00,VWS V14.01,2013-04-04 06:00:00,
2013-04-04 02:05:00,33.6,16.0,30.27,NW,314,6.0,16.0,48,0.00,,---,0.00,VWS V14.01,2013-04-04 06:05:00,
2013-04-04 02:10:00,33.6,16.0,30.28,NNE,13,4.0,16.0,48,0.00,,---,0.00,VWS V14.01,2013-04-04 06:10:00,
2013-04-04 02:15:00,33.6,16.0,30.28,WNW,288,3.0,16.0,48,0.00,,---,0.00,VWS V14.01,2013-04-04 06:15:00,
2013-04-04 02:20:00,33.5,15.9,30.28,ENE,71,6.0,16.0,48,0.00,,---,0.00,VWS V14.01,2013-04-04 06:20:00,
2013-04-04 02:25:00,33.4,16.3,30.29,SSE,157,2.0,16.0,49,0.00,,---,0.00,VWS V14.01,2013-04-04 06:25:00,
2013-04-04 02:30:00,33.3,16.2,30.29,North,3,6.0,16.0,49,0.00,,---,0.00,VWS V14.01,2013-04-04 06:30:00,
2013-04-04 02:35:00,33.3,15.7,30.29,NNW,340,2.0,10.0,48,0.00,,---,0.00,VWS V14.01,2013-04-04 06:35:00,
2013-04-04 02:40:00,33.3,15.3,30.29,WNW,285,0.0,10.0,47,0.00,,---,0.00,VWS V14.01,2013-04-04 06:40:00,
2013-04-04 02:45:00,33.2,15.6,30.29,NNW,337,5.0,10.0,48,0.00,,---,0.00,VWS V14.01,2013-04-04 06:45:00,
2013-04-04 02:50:00,33.1,15.6,30.30,WSW,250,9.0,10.0,48,0.00,,---,0.00,VWS V14.01,2013-04-04 06:50:00,
2013-04-04 02:55:00,32.9,15.4,30.30,NW,311,11.0,11.0,48,0.00,,---,0.00,VWS V14.01,2013-04-04 06:55:00,
2013-04-04 03:00:00,32.9,16.8,30.30,WNW,300,6.0,11.0,51,0.00,,---,0.00,VWS V14.01,2013-04-04 07:00:00,
2013-04-04 03:05:00,32.9,15.9,30.30,NW,304,3.0,10.0,49,0.00,,---,0.00,VWS V14.01,2013-04-04 07:05:00,
2013-04-04 03:10:00,32.8,15.3,30.30,WNW,292,3.0,10.0,48,0.00,,---,0.00,VWS V14.01,2013-04-04 07:10:00,
2013-04-04 03:15:00,32.8,15.8,30.30,WSW,245,1.0,10.0,49,0.00,,---,0.00,VWS V14.01,2013-04-04 07:15:00,
2013-04-04 03:20:00,32.8,15.8,30.31,SSE,147,2.0,10.0,49,0.00,,---,0.00,VWS V14.01,2013-04-04 07:20:00,
2013-04-04 03:25:00,32.6,15.6,30.31,NNE,27,1.0,10.0,49,0.00,,---,0.00,VWS V14.01,2013-04-04 07:25:00,
2013-04-04 03:30:00,32.6,15.6,30.31,South,188,2.0,10.0,49,0.00,,---,0.00,VWS V14.01,2013-04-04 07:30:00,
2013-04-04 03:35:00,32.3,15.8,30.32,SE,142,3.0,4.0,50,0.00,,---,0.00,VWS V14.01,2013-04-04 07:35:00,
2013-04-04 03:40:00,32.3,15.8,30.32,SW,232,1.0,4.0,50,0.00,,---,0.00,VWS V14.01,2013-04-04 07:40:00,
2013-04-04 03:45:00,32.3,15.8,30.32,WSW,238,0.0,4.0,50,0.00,,---,0.00,VWS V14.01,2013-04-04 07:45:00,
2013-04-04 03:50:00,32.0,15.5,30.32,SE,136,0.0,4.0,50,0.00,,---,0.00,VWS V14.01,2013-04-04 07:50:00,
2013-04-04 03:55:00,31.7,15.7,30.32,SE,146,0.0,4.0,51,0.00,,---,0.00,VWS V14.01,2013-04-04 07:55:00,
2013-04-04 04:00:00,31.4,17.1,30.32,NNW,335,1.0,4.0,55,0.00,,---,0.00,VWS V14.01,2013-04-04 08:00:00,
2013-04-04 04:05:00,31.4,16.7,30.32,South,181,0.0,1.0,54,0.00,,---,0.00,VWS V14.01,2013-04-04 08:05:00,
2013-04-04 04:10:00,31.2,16.5,30.32,South,180,0.0,1.0,54,0.00,,---,0.00,VWS V14.01,2013-04-04 08:10:00,
2013-04-04 04:15:00,30.9,16.2,30.32,South,181,0.0,1.0,54,0.00,,---,0.00,VWS V14.01,2013-04-04 08:15:00,
2013-04-04 04:20:00,30.6,15.9,30.32,South,180,0.0,1.0,54,0.00,,---,0.00,VWS V14.01,2013-04-04 08:20:00,
2013-04-04 04:25:00,30.2,16.4,30.33,South,177,0.0,1.0,56,0.00,,---,0.00,VWS V14.01,2013-04-04 08:25:00,
2013-04-04 04:30:00,30.0,16.6,30.33,ESE,111,1.0,2.0,57,0.00,,---,0.00,VWS V14.01,2013-04-04 08:30:00,
2013-04-04 04:35:00,30.0,16.2,30.33,SE,127,0.0,2.0,56,0.00,,---,0.00,VWS V14.01,2013-04-04 08:35:00,
2013-04-04 04:40:00,29.8,16.0,30.33,SE,127,0.0,2.0,56,0.00,,---,0.00,VWS V14.01,2013-04-04 08:40:00,
2013-04-04 04:45:00,29.4,17.2,30.33,SE,127,0.0,2.0,60,0.00,,---,0.00,VWS V14.01,2013-04-04 08:45:00,
2013-04-04 04:50:00,29.0,17.6,30.33,SE,127,0.0,2.0,62,0.00,,---,0.00,VWS V14.01,2013-04-04 08:50:00,
2013-04-04 04:55:00,28.6,17.2,30.34,SE,127,0.0,2.0,62,0.00,,---,0.00,VWS V14.01,2013-04-04 08:55:00,
2013-04-04 05:00:00,28.6,18.0,30.34,SE,127,0.0,2.0,64,0.00,,---,0.00,VWS V14.01,2013-04-04 09:00:00,
2013-04-04 05:05:00,28.6,17.2,30.34,SE,127,0.0,1.0,62,0.00,,---,0.00,VWS V14.01,2013-04-04 09:05:00,
2013-04-04 05:10:00,28.6,18.0,30.34,SE,127,0.0,1.0,64,0.00,,---,0.00,VWS V14.01,2013-04-04 09:10:00,
2013-04-04 05:15:00,28.6,17.6,30.34,SE,129,1.0,2.0,63,0.00,,---,0.00,VWS V14.01,2013-04-04 09:15:00,
2013-04-04 05:20:00,28.6,16.9,30.34,SE,135,2.0,2.0,61,0.00,,---,0.00,VWS V14.01,2013-04-04 09:20:00,
2013-04-04 05:25:00,28.7,17.0,30.34,SE,135,0.0,2.0,61,0.00,,---,0.00,VWS V14.01,2013-04-04 09:25:00,
2013-04-04 05:30:00,28.5,17.9,30.34,WSW,243,0.0,2.0,64,0.00,,---,0.00,VWS V14.01,2013-04-04 09:30:00,
2013-04-04 05:35:00,28.3,18.1,30.34,WSW,245,0.0,0.0,65,0.00,,---,0.00,VWS V14.01,2013-04-04 09:35:00,
2013-04-04 05:40:00,28.4,17.8,30.35,WSW,247,0.0,1.0,64,0.00,,---,0.00,VWS V14.01,2013-04-04 09:40:00,
2013-04-04 05:45:00,28.2,18.0,30.35,WSW,247,0.0,1.0,65,0.00,,---,0.00,VWS V14.01,2013-04-04 09:45:00,
2013-04-04 05:50:00,27.8,17.6,30.36,SSW,205,1.0,1.0,65,0.00,,---,0.00,VWS V14.01,2013-04-04 09:50:00,
2013-04-04 05:55:00,27.7,17.5,30.36,SSE,160,0.0,1.0,65,0.00,,---,0.00,VWS V14.01,2013-04-04 09:55:00,
2013-04-04 06:00:00,27.6,17.4,30.36,SSE,153,1.0,1.0,65,0.00,,---,0.00,VWS V14.01,2013-04-04 10:00:00,
2013-04-04 06:05:00,27.8,17.6,30.36,SE,124,2.0,2.0,65,0.00,,---,0.00,VWS V14.01,2013-04-04 10:05:00,
2013-04-04 06:10:00,27.9,18.0,30.37,SSE,152,0.0,2.0,66,0.00,,---,0.00,VWS V14.01,2013-04-04 10:10:00,
2013-04-04 06:15:00,27.7,17.8,30.37,SSE,153,0.0,2.0,66,0.00,,---,0.00,VWS V14.01,2013-04-04 10:15:00,
2013-04-04 06:20:00,27.5,18.0,30.37,West,274,0.0,2.0,67,0.00,,---,0.00,VWS V14.01,2013-04-04 10:20:00,
2013-04-04 06:25:00,27.3,17.8,30.37,West,274,0.0,2.0,67,0.00,,---,0.00,VWS V14.01,2013-04-04 10:25:00,
2013-04-04 06:30:00,27.2,18.4,30.37,West,274,0.0,2.0,69,0.00,,---,0.00,VWS V14.01,2013-04-04 10:30:00,
2013-04-04 06:35:00,27.0,18.5,30.37,West,274,0.0,0.0,70,0.00,,---,0.00,VWS V14.01,2013-04-04 10:35:00,
2013-04-04 06:40:00,27.0,18.9,30.37,West,274,0.0,1.0,71,0.00,,---,0.00,VWS V14.01,2013-04-04 10:40:00,
2013-04-04 06:45:00,26.8,18.7,30.37,West,274,0.0,1.0,71,0.00,,---,0.00,VWS V14.01,2013-04-04 10:45:00,
2013-04-04 06:50:00,26.6,19.1,30.38,SW,224,1.0,1.0,73,0.00,,---,0.00,VWS V14.01,2013-04-04 10:50:00,
2013-04-04 06:55:00,26.6,18.8,30.38,SE,134,0.0,2.0,72,0.00,,---,0.00,VWS V14.01,2013-04-04 10:55:00,
2013-04-04 07:00:00,26.5,19.0,30.38,SE,139,0.0,2.0,73,0.00,,---,0.00,VWS V14.01,2013-04-04 11:00:00,
2013-04-04 07:05:00,26.6,19.4,30.38,SSW,212,0.0,1.0,74,0.00,,---,0.00,VWS V14.01,2013-04-04 11:05:00,
2013-04-04 07:10:00,26.9,19.4,30.38,SSW,211,0.0,1.0,73,0.00,,---,0.00,VWS V14.01,2013-04-04 11:10:00,
2013-04-04 07:15:00,27.1,19.3,30.38,ESE,109,0.0,1.0,72,0.00,,---,0.00,VWS V14.01,2013-04-04 11:15:00,
2013-04-04 07:20:00,27.5,18.7,30.39,SE,143,0.0,1.0,69,0.00,,---,0.00,VWS V14.01,2013-04-04 11:20:00,
2013-04-04 07:25:00,28.2,19.0,30.39,SE,142,1.0,1.0,68,0.00,,---,0.00,VWS V14.01,2013-04-04 11:25:00,
2013-04-04 07:30:00,28.8,20.3,30.39,West,270,0.0,1.0,70,0.00,,---,0.00,VWS V14.01,2013-04-04 11:30:00,
2013-04-04 07:35:00,29.1,19.2,30.40,West,270,0.0,0.0,66,0.00,,---,0.00,VWS V14.01,2013-04-04 11:35:00,
2013-04-04 07:40:00,30.0,19.3,30.40,West,270,0.0,0.0,64,0.00,,---,0.00,VWS V14.01,2013-04-04 11:40:00,
2013-04-04 07:45:00,30.5,18.3,30.40,East,79,0.0,2.0,60,0.00,,---,0.00,VWS V14.01,2013-04-04 11:45:00,
2013-04-04 07:50:00,31.0,18.4,30.39,NE,45,0.0,3.0,59,0.00,,---,0.00,VWS V14.01,2013-04-04 11:50:00,
2013-04-04 07:55:00,31.3,18.2,30.39,WNW,283,0.0,3.0,58,0.00,,---,0.00,VWS V14.01,2013-04-04 11:55:00,
2013-04-04 08:00:00,31.6,18.5,30.39,WNW,284,0.0,3.0,58,0.00,,---,0.00,VWS V14.01,2013-04-04 12:00:00,
2013-04-04 08:05:00,31.9,18.0,30.40,West,266,1.0,1.0,56,0.00,,---,0.00,VWS V14.01,2013-04-04 12:05:00,
2013-04-04 08:10:00,32.3,18.4,30.40,West,266,0.0,1.0,56,0.00,,---,0.00,VWS V14.01,2013-04-04 12:10:00,
2013-04-04 08:15:00,32.7,18.3,30.39,NE,36,2.0,2.0,55,0.00,,---,0.00,VWS V14.01,2013-04-04 12:15:00,
2013-04-04 08:20:00,33.0,19.4,30.39,NNE,16,3.0,5.0,57,0.00,,---,0.00,VWS V14.01,2013-04-04 12:20:00,
2013-04-04 08:25:00,33.1,18.3,30.38,NE,39,2.0,5.0,54,0.00,,---,0.00,VWS V14.01,2013-04-04 12:25:00,
2013-04-04 08:30:00,33.3,19.3,30.39,NE,43,3.0,5.0,56,0.00,,---,0.00,VWS V14.01,2013-04-04 12:30:00,
2013-04-04 08:35:00,33.4,19.0,30.39,NE,47,2.0,5.0,55,0.00,,---,0.00,VWS V14.01,2013-04-04 12:35:00,
2013-04-04 08:40:00,33.5,19.1,30.38,NNE,32,3.0,5.0,55,0.00,,---,0.00,VWS V14.01,2013-04-04 12:40:00,
2013-04-04 08:45:00,33.6,19.2,30.38,NE,46,0.0,5.0,55,0.00,,---,0.00,VWS V14.01,2013-04-04 12:45:00,
2013-04-04 08:50:00,33.9,18.6,30.38,NE,44,1.0,5.0,53,0.00,,---,0.00,VWS V14.01,2013-04-04 12:50:00,
2013-04-04 08:55:00,34.1,18.8,30.38,NE,36,0.0,5.0,53,0.00,,---,0.00,VWS V14.01,2013-04-04 12:55:00,
2013-04-04 09:00:00,34.2,18.9,30.38,NE,41,3.0,5.0,53,0.00,,---,0.00,VWS V14.01,2013-04-04 13:00:00,
2013-04-04 09:05:00,34.4,18.6,30.38,WNW,293,1.0,5.0,52,0.00,,---,0.00,VWS V14.01,2013-04-04 13:05:00,
2013-04-04 09:10:00,34.6,18.8,30.38,WSW,242,2.0,5.0,52,0.00,,---,0.00,VWS V14.01,2013-04-04 13:10:00,
2013-04-04 09:15:00,34.7,18.9,30.38,WNW,291,1.0,5.0,52,0.00,,---,0.00,VWS V14.01,2013-04-04 13:15:00,
2013-04-04 09:20:00,35.0,19.6,30.38,SW,215,2.0,5.0,53,0.00,,---,0.00,VWS V14.01,2013-04-04 13:20:00,
2013-04-04 09:25:00,35.2,18.9,30.38,East,100,1.0,5.0,51,0.00,,---,0.00,VWS V14.01,2013-04-04 13:25:00,
2013-04-04 09:30:00,35.5,19.0,30.37,NNE,31,2.0,4.0,52,0.00,,,0.00,weatherlink.com 1.10,2013-04-04 13:30:00,
2013-04-04 09:35:00,35.7,19.8,30.37,North,11,2.0,4.0,52,0.00,,---,0.00,VWS V14.01,2013-04-04 13:35:00,
2013-04-04 09:40:00,36.1,19.3,30.37,NE,37,3.0,4.0,50,0.00,,---,0.00,VWS V14.01,2013-04-04 13:40:00,
2013-04-04 09:45:00,36.3,19.0,30.37,NNE,32,1.0,4.0,49,0.00,,---,0.00,VWS V14.01,2013-04-04 13:45:00,
2013-04-04 09:50:00,36.7,19.8,30.37,NNW,330,2.0,5.0,50,0.00,,---,0.00,VWS V14.01,2013-04-04 13:50:00,
2013-04-04 09:55:00,36.8,19.0,30.37,NW,316,0.0,5.0,48,0.00,,---,0.00,VWS V14.01,2013-04-04 13:55:00,
2013-04-04 10:00:00,37.2,19.3,30.37,SW,218,2.0,5.0,48,0.00,,---,0.00,VWS V14.01,2013-04-04 14:00:00,
2013-04-04 10:05:00,37.4,19.5,30.37,West,269,4.0,5.0,48,0.00,,---,0.00,VWS V14.01,2013-04-04 14:05:00,
2013-04-04 10:10:00,38.0,20.1,30.37,ESE,103,1.0,5.0,48,0.00,,---,0.00,VWS V14.01,2013-04-04 14:10:00,
2013-04-04 10:15:00,38.4,19.9,30.37,WNW,286,2.0,5.0,47,0.00,,---,0.00,VWS V14.01,2013-04-04 14:15:00,
2013-04-04 10:20:00,38.7,20.7,30.36,West,271,0.0,5.0,48,0.00,,---,0.00,VWS V14.01,2013-04-04 14:20:00,
2013-04-04 10:25:00,38.9,19.4,30.37,ESE,120,1.0,5.0,45,0.00,,---,0.00,VWS V14.01,2013-04-04 14:25:00,
2013-04-04 10:30:00,39.3,19.8,30.36,SE,135,1.0,5.0,45,0.00,,---,0.00,VWS V14.01,2013-04-04 14:30:00,
2013-04-04 10:35:00,40.0,20.4,30.36,West,265,1.0,3.0,45,0.00,,---,0.00,VWS V14.01,2013-04-04 14:35:00,
2013-04-04 10:40:00,40.0,19.9,30.36,WSW,238,3.0,4.0,44,0.00,,---,0.00,VWS V14.01,2013-04-04 14:40:00,
2013-04-04 10:45:00,40.0,19.9,30.36,WSW,242,2.0,5.0,44,0.00,,---,0.00,VWS V14.01,2013-04-04 14:45:00,
2013-04-04 10:50:00,40.8,20.6,30.36,West,271,2.0,5.0,44,0.00,,---,0.00,VWS V14.01,2013-04-04 14:50:00,
2013-04-04 10:55:00,40.8,20.0,30.36,West,280,2.0,5.0,43,0.00,,---,0.00,VWS V14.01,2013-04-04 14:55:00,
2013-04-04 11:00:00,40.7,19.4,30.35,SSW,212,1.0,7.0,42,0.00,,---,0.00,VWS V14.01,2013-04-04 15:00:00,
2013-04-04 11:05:00,41.6,19.1,30.35,SW,214,0.0,3.0,40,0.00,,---,0.00,VWS V14.01,2013-04-04 15:05:00,
2013-04-04 11:10:00,42.7,19.5,30.35,SE,131,5.0,5.0,39,0.00,,---,0.00,VWS V14.01,2013-04-04 15:10:00,
2013-04-04 11:15:00,42.4,19.2,30.35,SSE,150,0.0,5.0,39,0.00,,---,0.00,VWS V14.01,2013-04-04 15:15:00,
2013-04-04 11:20:00,43.0,19.8,30.34,East,98,0.0,5.0,39,0.00,,---,0.00,VWS V14.01,2013-04-04 15:20:00,
2013-04-04 11:25:00,43.7,20.4,30.34,WNW,291,1.0,5.0,39,0.00,,---,0.00,VWS V14.01,2013-04-04 15:25:00,
2013-04-04 11:30:00,44.0,20.6,30.34,WNW,282,2.0,5.0,39,0.00,,---,0.00,VWS V14.01,2013-04-04 15:30:00,
2013-04-04 11:35:00,43.8,19.9,30.34,West,280,2.0,6.0,38,0.00,,---,0.00,VWS V14.01,2013-04-04 15:35:00,
2013-04-04 11:40:00,43.8,19.9,30.33,West,269,1.0,6.0,38,0.00,,---,0.00,VWS V14.01,2013-04-04 15:40:00,
2013-04-04 11:46:00,44.7,18.8,30.32,NNE,33,0.0,6.0,35,0.00,,---,0.00,VWS V14.01,2013-04-04 15:46:00,
2013-04-04 11:51:00,44.9,18.9,30.32,SE,136,1.0,6.0,35,0.00,,---,0.00,VWS V14.01,2013-04-04 15:51:00,
2013-04-04 11:56:00,45.4,18.7,30.32,ESE,105,2.0,6.0,34,0.00,,---,0.00,VWS V14.01,2013-04-04 15:56:00,
2013-04-04 12:01:00,45.4,18.7,30.32,ESE,113,1.0,1.0,34,0.00,,---,0.00,VWS V14.01,2013-04-04 16:01:00,
2013-04-04 12:06:00,46.2,18.0,30.32,SE,134,2.0,6.0,33,0.00,,,0.00,weatherlink.com 1.10,2013-04-04 16:06:00,
2013-04-04 12:11:00,47.1,19.5,30.31,SE,125,2.0,4.0,33,0.00,,---,0.00,VWS V14.01,2013-04-04 16:11:00,
2013-04-04 12:16:00,47.2,19.6,30.31,SE,135,3.0,4.0,33,0.00,,---,0.00,VWS V14.01,2013-04-04 16:16:00,
2013-04-04 12:21:00,47.3,19.7,30.31,ESE,115,1.0,5.0,33,0.00,,---,0.00,VWS V14.01,2013-04-04 16:21:00,
2013-04-04 12:26:00,47.9,18.7,30.31,SW,229,2.0,6.0,31,0.00,,---,0.00,VWS V14.01,2013-04-04 16:26:00,
2013-04-04 12:31:00,47.9,20.2,30.30,WNW,300,1.0,6.0,33,0.00,,---,0.00,VWS V14.01,2013-04-04 16:31:00,
2013-04-04 12:36:00,47.3,18.2,30.30,WSW,255,1.0,5.0,31,0.00,,---,0.00,VWS V14.01,2013-04-04 16:36:00,
2013-04-04 12:41:00,47.2,18.1,30.30,WSW,257,1.0,5.0,31,0.00,,---,0.00,VWS V14.01,2013-04-04 16:41:00,
2013-04-04 12:46:00,47.1,19.5,30.29,SSE,166,2.0,5.0,33,0.00,,---,0.00,VWS V14.01,2013-04-04 16:46:00,
2013-04-04 12:51:00,47.9,20.2,30.29,SE,139,2.0,7.0,33,0.00,,---,0.00,VWS V14.01,2013-04-04 16:51:00,
2013-04-04 12:56:00,48.5,20.0,30.29,SE,139,3.0,7.0,32,0.00,,---,0.00,VWS V14.01,2013-04-04 16:56:00,
2013-04-04 13:01:00,48.8,20.3,30.29,NE,55,2.0,2.0,32,0.00,,---,0.00,VWS V14.01,2013-04-04 17:01:00,
2013-04-04 13:06:00,49.4,20.0,30.29,SSW,201,1.0,7.0,31,0.00,,---,0.00,VWS V14.01,2013-04-04 17:06:00,
2013-04-04 13:11:00,49.9,20.5,30.28,SE,141,3.0,7.0,31,0.00,,---,0.00,VWS V14.01,2013-04-04 17:11:00,
2013-04-04 13:16:00,49.3,20.0,30.28,West,276,3.0,8.0,31,0.00,,---,0.00,VWS V14.01,2013-04-04 17:16:00,
2013-04-04 13:21:00,48.4,19.9,30.28,ENE,65,2.0,8.0,32,0.00,,---,0.00,VWS V14.01,2013-04-04 17:21:00,
2013-04-04 13:26:00,49.5,20.9,30.27,ESE,120,3.0,8.0,32,0.00,,---,0.00,VWS V14.01,2013-04-04 17:26:00,
2013-04-04 13:31:00,50.1,19.1,30.27,SE,146,3.0,3.0,29,0.00,,---,0.00,VWS V14.01,2013-04-04 17:31:00,
2013-04-04 13:36:00,50.0,20.6,30.26,SSE,150,1.0,5.0,31,0.00,,---,0.00,VWS V14.01,2013-04-04 17:36:00,
2013-04-04 13:41:00,50.6,20.3,30.26,SE,129,1.0,5.0,30,0.00,,---,0.00,VWS V14.01,2013-04-04 17:41:00,
2013-04-04 13:46:00,51.7,20.5,30.26,NE,46,2.0,5.0,29,0.00,,---,0.00,VWS V14.01,2013-04-04 17:46:00,
2013-04-04 13:51:00,52.3,21.0,30.25,WNW,297,3.0,5.0,29,0.00,,---,0.00,VWS V14.01,2013-04-04 17:51:00,
2013-04-04 13:56:00,52.3,20.2,30.25,West,274,4.0,5.0,28,0.00,,---,0.00,VWS V14.01,2013-04-04 17:56:00,
2013-04-04 14:01:00,52.5,21.2,30.25,SE,134,1.0,5.0,29,0.00,,---,0.00,VWS V14.01,2013-04-04 18:01:00,
2013-04-04 14:06:00,52.1,21.6,30.25,SW,215,3.0,7.0,30,0.00,,---,0.00,VWS V14.01,2013-04-04 18:06:00,
2013-04-04 14:11:00,52.6,22.1,30.24,WNW,282,4.0,7.0,30,0.00,,---,0.00,VWS V14.01,2013-04-04 18:11:00,
2013-04-04 14:16:00,51.7,19.7,30.24,SSW,194,2.0,7.0,28,0.00,,---,0.00,VWS V14.01,2013-04-04 18:16:00,
2013-04-04 14:21:00,52.2,21.7,30.23,ESE,120,5.0,7.0,30,0.00,,---,0.00,VWS V14.01,2013-04-04 18:21:00,
2013-04-04 14:26:00,53.6,21.3,30.23,SSE,155,5.0,8.0,28,0.00,,---,0.00,VWS V14.01,2013-04-04 18:26:00,
2013-04-04 14:31:00,53.5,22.0,30.23,West,263,2.0,8.0,29,0.00,,---,0.00,VWS V14.01,2013-04-04 18:31:00,
2013-04-04 14:36:00,53.3,21.9,30.23,WSW,238,1.0,6.0,29,0.00,,---,0.00,VWS V14.01,2013-04-04 18:36:00,
2013-04-04 14:41:00,53.8,22.3,30.22,West,276,5.0,6.0,29,0.00,,---,0.00,VWS V14.01,2013-04-04 18:41:00,
2013-04-04 14:46:00,53.3,22.7,30.22,SW,230,0.0,6.0,30,0.00,,---,0.00,VWS V14.01,2013-04-04 18:46:00,
2013-04-04 14:51:00,53.8,21.5,30.21,South,177,1.0,7.0,28,0.00,,---,0.00,VWS V14.01,2013-04-04 18:51:00,
2013-04-04 14:56:00,54.3,22.7,30.21,WSW,250,1.0,7.0,29,0.00,,---,0.00,VWS V14.01,2013-04-04 18:56:00,
2013-04-04 15:01:00,53.4,22.0,30.21,WSW,238,2.0,3.0,29,0.00,,---,0.00,VWS V14.01,2013-04-04 19:01:00,
2013-04-04 15:06:00,53.9,23.2,30.20,WNW,284,3.0,4.0,30,0.00,,---,0.00,VWS V14.01,2013-04-04 19:06:00,
2013-04-04 15:11:00,54.1,22.6,30.20,WNW,291,2.0,5.0,29,0.00,,---,0.00,VWS V14.01,2013-04-04 19:11:00,
2013-04-04 15:16:00,53.4,23.5,30.20,NE,38,2.0,12.0,31,0.00,,---,0.00,VWS V14.01,2013-04-04 19:16:00,
2013-04-04 15:21:00,54.5,23.7,30.20,WNW,298,3.0,12.0,30,0.00,,---,0.00,VWS V14.01,2013-04-04 19:21:00,
2013-04-04 15:26:00,54.8,23.2,30.19,ENE,70,1.0,12.0,29,0.00,,---,0.00,VWS V14.01,2013-04-04 19:26:00,
2013-04-04 15:31:00,54.4,21.1,30.19,West,281,5.0,5.0,27,0.00,,---,0.00,VWS V14.01,2013-04-04 19:31:00,
2013-04-04 15:36:00,53.8,21.5,30.18,South,188,1.0,10.0,28,0.00,,---,0.00,VWS V14.01,2013-04-04 19:36:00,
2013-04-04 15:41:00,54.4,22.0,30.18,SE,131,1.0,10.0,28,0.00,,---,0.00,VWS V14.01,2013-04-04 19:41:00,
2013-04-04 15:46:00,55.4,22.0,30.18,South,181,3.0,10.0,27,0.00,,---,0.00,VWS V14.01,2013-04-04 19:46:00,
2013-04-04 15:51:00,55.6,22.2,30.18,SSE,156,2.0,10.0,27,0.00,,---,0.00,VWS V14.01,2013-04-04 19:51:00,
2013-04-04 15:57:00,55.7,24.0,30.17,SSE,153,2.0,10.0,29,0.00,,---,0.00,VWS V14.01,2013-04-04 19:57:00,
2013-04-04 16:02:00,55.5,22.1,30.17,WNW,285,1.0,5.0,27,0.00,,---,0.00,VWS V14.01,2013-04-04 20:02:00,
2013-04-04 16:07:00,56.1,23.5,30.17,SE,131,3.0,5.0,28,0.00,,---,0.00,VWS V14.01,2013-04-04 20:07:00,
2013-04-04 16:12:00,56.0,22.5,30.17,ESE,103,1.0,7.0,27,0.00,,---,0.00,VWS V14.01,2013-04-04 20:12:00,
2013-04-04 16:17:00,55.9,21.5,30.17,West,276,6.0,9.0,26,0.00,,---,0.00,VWS V14.01,2013-04-04 20:17:00,
2013-04-04 16:22:00,55.5,23.0,30.17,South,191,1.0,9.0,28,0.00,,---,0.00,VWS V14.01,2013-04-04 20:22:00,
2013-04-04 16:27:00,56.0,23.4,30.17,West,271,3.0,9.0,28,0.00,,---,0.00,VWS V14.01,2013-04-04 20:27:00,
2013-04-04 16:32:00,55.5,23.0,30.16,SSW,200,1.0,4.0,28,0.00,,---,0.00,VWS V14.01,2013-04-04 20:32:00,
2013-04-04 16:37:00,55.3,21.9,30.16,SE,134,1.0,4.0,27,0.00,,---,0.00,VWS V14.01,2013-04-04 20:37:00,
2013-04-04 16:42:00,55.0,22.5,30.16,SSW,212,1.0,4.0,28,0.00,,---,0.00,VWS V14.01,2013-04-04 20:42:00,
2013-04-04 16:47:00,54.6,21.3,30.16,NW,325,2.0,4.0,27,0.00,,---,0.00,VWS V14.01,2013-04-04 20:47:00,
2013-04-04 16:52:00,54.0,21.6,30.16,SW,233,3.0,4.0,28,0.00,,---,0.00,VWS V14.01,2013-04-04 20:52:00,
2013-04-04 16:57:00,53.7,22.2,30.16,SW,219,2.0,7.0,29,0.00,,---,0.00,VWS V14.01,2013-04-04 20:57:00,
2013-04-04 17:02:00,53.4,22.0,30.16,WSW,248,3.0,5.0,29,0.00,,---,0.00,VWS V14.01,2013-04-04 21:02:00,
2013-04-04 17:07:00,53.4,20.3,30.16,SW,215,3.0,5.0,27,0.00,,---,0.00,VWS V14.01,2013-04-04 21:07:00,
2013-04-04 17:12:00,53.3,21.0,30.15,West,266,2.0,5.0,28,0.00,,---,0.00,VWS V14.01,2013-04-04 21:12:00,
2013-04-04 17:17:00,53.3,22.7,30.15,West,276,5.0,6.0,30,0.00,,---,0.00,VWS V14.01,2013-04-04 21:17:00,
2013-04-04 17:22:00,52.8,21.4,30.15,SW,231,2.0,9.0,29,0.00,,---,0.00,VWS V14.01,2013-04-04 21:22:00,
2013-04-04 17:27:00,52.9,23.1,30.15,NNW,328,2.0,9.0,31,0.00,,---,0.00,VWS V14.01,2013-04-04 21:27:00,
2013-04-04 17:32:00,53.0,24.7,30.15,West,269,3.0,6.0,33,0.00,,---,0.00,VWS V14.01,2013-04-04 21:32:00,
2013-04-04 17:37:00,53.0,23.2,30.14,ESE,110,1.0,6.0,31,0.00,,---,0.00,VWS V14.01,2013-04-04 21:37:00,
2013-04-04 17:42:00,52.9,26.7,30.14,SSE,162,0.0,7.0,36,0.00,,---,0.00,VWS V14.01,2013-04-04 21:42:00,
2013-04-04 17:48:00,52.0,26.5,30.14,SE,146,3.0,8.0,37,0.00,,---,0.00,VWS V14.01,2013-04-04 21:48:00,
2013-04-04 17:53:00,51.5,26.8,30.14,SSE,164,0.0,8.0,38,0.00,,---,0.00,VWS V14.01,2013-04-04 21:53:00,
2013-04-04 17:58:00,51.2,27.7,30.15,SSE,162,1.0,8.0,40,0.00,,---,0.00,VWS V14.01,2013-04-04 21:58:00,
2013-04-04 18:03:00,51.1,28.2,30.15,South,181,0.0,3.0,41,0.00,,---,0.00,VWS V14.01,2013-04-04 22:03:00,
2013-04-04 18:08:00,50.7,27.3,30.15,SE,130,3.0,8.0,40,0.00,,---,0.00,VWS V14.01,2013-04-04 22:08:00,
2013-04-04 18:13:00,50.3,27.5,30.15,SSW,207,2.0,8.0,41,0.00,,---,0.00,VWS V14.01,2013-04-04 22:13:00,
2013-04-04 18:18:00,50.0,27.8,30.14,SW,235,1.0,8.0,42,0.00,,---,0.00,VWS V14.01,2013-04-04 22:18:00,
2013-04-04 18:23:00,49.8,27.6,30.15,WSW,250,0.0,8.0,42,0.00,,---,0.00,VWS V14.01,2013-04-04 22:23:00,
2013-04-04 18:28:00,49.7,27.6,30.15,SE,141,0.0,8.0,42,0.00,,---,0.00,VWS V14.01,2013-04-04 22:28:00,
2013-04-04 18:33:00,49.6,27.5,30.15,SE,124,0.0,4.0,42,0.00,,---,0.00,VWS V14.01,2013-04-04 22:33:00,
2013-04-04 18:38:00,49.5,28.0,30.15,SSE,160,1.0,5.0,43,0.00,,---,0.00,VWS V14.01,2013-04-04 22:38:00,
2013-04-04 18:42:00,49.1,28.7,30.16,West,264,0.0,5.0,45,0.00,,---,0.00,VWS V14.01,2013-04-04 22:42:00,
2013-04-04 18:47:00,48.7,28.3,30.16,SSW,194,1.0,5.0,45,0.00,,---,0.00,VWS V14.01,2013-04-04 22:47:00,
2013-04-04 18:52:00,48.4,28.0,30.16,West,274,0.0,6.0,45,0.00,,---,0.00,VWS V14.01,2013-04-04 22:52:00,
2013-04-04 18:57:00,48.1,28.8,30.16,NNW,344,0.0,6.0,47,0.00,,---,0.00,VWS V14.01,2013-04-04 22:57:00,
2013-04-04 19:02:00,47.7,28.5,30.15,SE,127,1.0,4.0,47,0.00,,---,0.00,VWS V14.01,2013-04-04 23:02:00,
2013-04-04 19:07:00,47.4,28.7,30.15,SW,221,1.0,4.0,48,0.00,,---,0.00,VWS V14.01,2013-04-04 23:07:00,
2013-04-04 19:12:00,47.2,28.5,30.15,WNW,295,1.0,4.0,48,0.00,,---,0.00,VWS V14.01,2013-04-04 23:12:00,
2013-04-04 19:17:00,46.9,28.8,30.16,SW,226,0.0,4.0,49,0.00,,---,0.00,VWS V14.01,2013-04-04 23:17:00,
2013-04-04 19:22:00,46.7,28.6,30.16,SSE,159,0.0,4.0,49,0.00,,---,0.00,VWS V14.01,2013-04-04 23:22:00,
2013-04-04 19:27:00,46.5,28.9,30.16,WSW,245,0.0,4.0,50,0.00,,---,0.00,VWS V14.01,2013-04-04 23:27:00,
2013-04-04 19:32:00,46.3,29.2,30.15,NW,325,0.0,2.0,51,0.00,,---,0.00,VWS V14.01,2013-04-04 23:32:00,
2013-04-04 19:37:00,46.1,29.0,30.15,WNW,283,1.0,3.0,51,0.00,,---,0.00,VWS V14.01,2013-04-04 23:37:00,
2013-04-04 19:42:00,46.1,29.0,30.15,WSW,242,1.0,3.0,51,0.00,,---,0.00,VWS V14.01,2013-04-04 23:42:00,
2013-04-04 19:47:00,45.9,29.3,30.15,SSE,158,0.0,3.0,52,0.00,,---,0.00,VWS V14.01,2013-04-04 23:47:00,
2013-04-04 19:52:00,45.8,29.7,30.15,WSW,252,0.0,3.0,53,0.00,,---,0.00,VWS V14.01,2013-04-04 23:52:00,
2013-04-04 19:57:00,45.7,29.6,30.14,WSW,250,0.0,3.0,53,0.00,,---,0.00,VWS V14.01,2013-04-04 23:57:00,
2013-04-04 20:02:00,45.5,29.4,30.14,SW,228,0.0,1.0,53,0.00,,---,0.00,VWS V14.01,2013-04-05 00:02:00,
2013-04-04 20:07:00,45.4,29.3,30.14,SW,229,0.0,1.0,53,0.00,,---,0.00,VWS V14.01,2013-04-05 00:07:00,
2013-04-04 20:12:00,45.3,29.6,30.14,SW,229,0.0,1.0,54,0.00,,---,0.00,VWS V14.01,2013-04-05 00:12:00,
2013-04-04 20:17:00,45.1,29.5,30.13,SW,229,0.0,1.0,54,0.00,,---,0.00,VWS V14.01,2013-04-05 00:17:00,
2013-04-04 20:22:00,45.0,30.3,30.13,SW,235,1.0,1.0,56,0.00,,---,0.00,VWS V14.01,2013-04-05 00:22:00,
2013-04-04 20:27:00,44.9,30.6,30.13,SW,235,0.0,1.0,57,0.00,,---,0.00,VWS V14.01,2013-04-05 00:27:00,
2013-04-04 20:32:00,44.8,30.1,30.13,SW,235,0.0,0.0,56,0.00,,---,0.00,VWS V14.01,2013-04-05 00:32:00,
2013-04-04 20:37:00,44.5,28.9,30.13,SW,235,0.0,0.0,54,0.00,,---,0.00,VWS V14.01,2013-04-05 00:37:00,
2013-04-04 20:42:00,44.4,29.3,30.13,SW,233,0.0,0.0,55,0.00,,---,0.00,VWS V14.01,2013-04-05 00:42:00,
2013-04-04 20:47:00,44.3,29.6,30.13,SW,233,0.0,0.0,56,0.00,,---,0.00,VWS V14.01,2013-04-05 00:47:00,
2013-04-04 20:52:00,44.2,30.4,30.13,SW,233,0.0,0.0,58,0.00,,---,0.00,VWS V14.01,2013-04-05 00:52:00,
2013-04-04 20:57:00,44.1,30.7,30.13,SW,233,0.0,0.0,59,0.00,,---,0.00,VWS V14.01,2013-04-05 00:57:00,
2013-04-04 21:02:00,43.9,30.9,30.13,SW,235,0.0,0.0,60,0.00,,---,0.00,VWS V14.01,2013-04-05 01:02:00,
2013-04-04 21:07:00,43.7,29.5,30.13,SW,235,0.0,0.0,57,0.00,,---,0.00,VWS V14.01,2013-04-05 01:07:00,
2013-04-04 21:12:00,43.6,29.4,30.13,SW,235,0.0,0.0,57,0.00,,---,0.00,VWS V14.01,2013-04-05 01:12:00,
2013-04-04 21:17:00,43.4,30.0,30.13,SW,235,0.0,0.0,59,0.00,,---,0.00,VWS V14.01,2013-04-05 01:17:00,
2013-04-04 21:22:00,43.2,29.4,30.12,SW,233,0.0,0.0,58,0.00,,---,0.00,VWS V14.01,2013-04-05 01:22:00,
2013-04-04 21:27:00,43.1,29.8,30.12,SW,235,0.0,0.0,59,0.00,,---,0.00,VWS V14.01,2013-04-05 01:27:00,
2013-04-04 21:32:00,43.2,28.1,30.12,South,177,0.0,2.0,55,0.00,,---,0.00,VWS V14.01,2013-04-05 01:32:00,
2013-04-04 21:37:00,43.4,27.0,30.12,West,274,1.0,2.0,52,0.00,,---,0.00,VWS V14.01,2013-04-05 01:37:00,
2013-04-04 21:42:00,43.9,25.5,30.12,NNW,335,0.0,2.0,48,0.00,,---,0.00,VWS V14.01,2013-04-05 01:42:00,
2013-04-04 21:48:00,44.5,24.0,30.12,West,264,1.0,2.0,44,0.00,,---,0.00,VWS V14.01,2013-04-05 01:48:00,
2013-04-04 21:53:00,44.8,23.7,30.12,West,271,1.0,2.0,43,0.00,,---,0.00,VWS V14.01,2013-04-05 01:53:00,
2013-04-04 21:58:00,45.0,23.3,30.11,WSW,238,1.0,2.0,42,0.00,,---,0.00,VWS V14.01,2013-04-05 01:58:00,
2013-04-04 22:03:00,45.0,23.3,30.11,WSW,238,0.0,0.0,42,0.00,,---,0.00,VWS V14.01,2013-04-05 02:03:00,
2013-04-04 22:08:00,44.9,23.8,30.11,WSW,239,0.0,0.0,43,0.00,,---,0.00,VWS V14.01,2013-04-05 02:08:00,
2013-04-04 22:13:00,44.7,23.6,30.11,SW,228,0.0,1.0,43,0.00,,---,0.00,VWS V14.01,2013-04-05 02:13:00,
2013-04-04 22:18:00,44.6,23.5,30.11,WSW,245,0.0,2.0,43,0.00,,---,0.00,VWS V14.01,2013-04-05 02:18:00,
2013-04-04 22:23:00,44.6,22.9,30.11,SSW,211,0.0,3.0,42,0.00,,---,0.00,VWS V14.01,2013-04-05 02:23:00,
2013-04-04 22:28:00,44.5,22.9,30.11,WSW,243,2.0,6.0,42,0.00,,---,0.00,VWS V14.01,2013-04-05 02:28:00,
2013-04-04 22:33:00,44.5,22.3,30.12,WSW,245,2.0,4.0,41,0.00,,---,0.00,VWS V14.01,2013-04-05 02:33:00,
2013-04-04 22:38:00,44.5,22.3,30.11,SW,231,2.0,4.0,41,0.00,,---,0.00,VWS V14.01,2013-04-05 02:38:00,
2013-04-04 22:43:00,44.5,22.3,30.11,SW,215,1.0,5.0,41,0.00,,---,0.00,VWS V14.01,2013-04-05 02:43:00,
2013-04-04 22:48:00,44.4,22.2,30.11,WSW,238,1.0,5.0,41,0.00,,---,0.00,VWS V14.01,2013-04-05 02:48:00,
2013-04-04 22:53:00,44.3,21.5,30.11,West,262,1.0,6.0,40,0.00,,---,0.00,VWS V14.01,2013-04-05 02:53:00,
2013-04-04 22:58:00,44.3,21.5,30.11,SSW,201,0.0,6.0,40,0.00,,---,0.00,VWS V14.01,2013-04-05 02:58:00,
2013-04-04 23:03:00,44.2,21.4,30.11,WSW,245,1.0,4.0,40,0.00,,---,0.00,VWS V14.01,2013-04-05 03:03:00,
2013-04-04 23:08:00,44.0,21.2,30.11,WSW,247,0.0,4.0,40,0.00,,---,0.00,VWS V14.01,2013-04-05 03:08:00,
2013-04-04 23:13:00,44.0,21.2,30.11,SW,215,0.0,4.0,40,0.00,,---,0.00,VWS V14.01,2013-04-05 03:13:00,
2013-04-04 23:18:00,43.9,21.7,30.10,WSW,246,1.0,4.0,41,0.00,,---,0.00,VWS V14.01,2013-04-05 03:18:00,
2013-04-04 23:23:00,43.7,21.0,30.10,SSW,197,6.0,6.0,40,0.00,,---,0.00,VWS V14.01,2013-04-05 03:23:00,
2013-04-04 23:28:00,43.7,21.6,30.09,West,271,0.0,6.0,41,0.00,,---,0.00,VWS V14.01,2013-04-05 03:28:00,
2013-04-04 23:33:00,43.6,21.5,30.09,SSE,166,1.0,2.0,41,0.00,,---,0.00,VWS V14.01,2013-04-05 03:33:00,
2013-04-04 23:38:00,43.6,21.5,30.09,South,176,1.0,2.0,41,0.00,,---,0.00,VWS V14.01,2013-04-05 03:38:00,
2013-04-04 23:43:00,43.5,21.4,30.09,South,172,0.0,2.0,41,0.00,,---,0.00,VWS V14.01,2013-04-05 03:43:00,
2013-04-04 23:48:00,43.3,21.2,30.09,SE,138,0.0,2.0,41,0.00,,---,0.00,VWS V14.01,2013-04-05 03:48:00,
2013-04-04 23:53:00,43.2,21.1,30.09,SSE,156,1.0,3.0,41,0.00,,---,0.00,VWS V14.01,2013-04-05 03:53:00,
2013-04-04 23:58:00,43.2,20.5,30.08,SE,134,0.0,3.0,40,0.00,,---,0.00,VWS V14.01,2013-04-05 03:58:00,